Regional Weather Roundup
Issued by NWS Kansas City/Pleasant Hill, MO

Home | Current Version | Previous Version | Text Only | Print | Product List | Glossary On
Versions: 1 2 3 4 5 6 7 8 9 10 11 12 13 14 15 16 17 18 19 20 21 22 23 24 25 26 27
000
ASUS43 KEAX 240910
RWREAX

WEATHER ROUNDUP FOR EASTERN KANSAS AND NORTHWEST MISSOURI
NATIONAL WEATHER SERVICE KANSAS CITY/PLEASANT HILL MO
400 AM CDT SUN JUL 24 2016

KSZ040-057-103>105-MOZ028-029-037-043-241000-
...KANSAS CITY METROPOLITAN AREA...

CITY           SKY/WX    TMP DP  RH WIND       PRES   REMARKS
K.C. INTL      PTCLDY    78  71  79 S8        29.87S
K.C. DOWNTOWN  CLEAR     84  71  65 S8        29.86R
LEES SUMMIT    CLEAR     82  73  74 S8        29.89S
OLATHE - IXD   CLEAR     78  72  81 S8        29.89R
OLATHE - OJC   CLEAR     78  71  79 S5        29.89R
LAWRENCE       CLEAR     77  71  82 SE6       29.86S

$$

MOZ001>008-011>017-020>025-030>033-038>040-044>046-053-054-241000-
...NORTHERN AND CENTRAL MISSOURI...

CITY           SKY/WX    TMP DP  RH WIND       PRES   REMARKS
ST. JOSEPH     PTCLDY    81  71  71 S8        29.84F
MOSBY          CLOUDY    79  73  83 SE3       29.87R
WHITEMAN AFB   MOCLDY    80  80  99 S7        29.89R HX  90
CLINTON        CLEAR     79  75  89 S5        29.90S
SEDALIA        CLOUDY    80  75  84 S8        29.92R
WARSAW         NOT AVBL
CHILLICOTHE      N/A     78  74  87 CALM      29.88R
KIRKSVILLE     CLEAR     77  74  90 S5        29.90S

$$

MOZ041-047>049-056>058-063>065-088>090-097-241000-
...EASTERN AND SOUTHERN MISSOURI...

CITY           SKY/WX    TMP DP  RH WIND       PRES   REMARKS
ST. LOUIS INTL CLEAR     83  74  74 S6        29.93S
SPIRIT OF STL  CLEAR     78  76  93 CALM      29.91S
COLUMBIA       CLEAR     78  75  90 S8        29.92F
JEFFERSON CITY CLEAR     80  75  84 SE3       29.91S
ROLLA          CLEAR     76  72  87 S9        29.94S
OSAGE BEACH    CLEAR     77  72  84 SE5       29.94S
SPRINGFIELD    CLEAR     78  72  81 SE7       29.95S
BRANSON        PTCLDY    75  72  88 CALM      29.97F
JOPLIN         PTCLDY    80  72  76 S8        29.92S
WEST PLAINS    PTCLDY    74  69  85 CALM      29.98S

$$

IAZ060-094-KSZ022-034>040-054-083-096-NEZ052-066-093-241000-
...KANSAS...SOUTHEAST NEBRASKA AND IOWA...

CITY           SKY/WX    TMP DP  RH WIND       PRES   REMARKS
TOPEKA         CLOUDY    79  71  76 N3        29.86R
MANHATTAN      LGT RAIN  82  70  66 SW3       29.87R
EMPORIA        PTCLDY    77  70  79 S9        29.87S
CHANUTE        PTCLDY    79  71  76 S8        29.89S
WICHITA        PTCLDY    78  68  71 S6        29.88F
OMAHA          CLEAR     80  74  81 SE5       29.83S
LINCOLN        CLEAR     75  71  87 N6        29.86R
FALLS CITY     CLOUDY    79  72  79 W5        29.82S
LAMONI         CLOUDY    78  75  90 S8        29.86S
DES MOINES     PTCLDY    80  75  84 S7        29.82S

$$





USA.gov is the U.S. government's official web portal to all federal, state and local government web resources and services.